ISS (ZARYA) 1 25544U 98067A 26207.41084145 .00010751 00000+0 20166-3 0 9995 2 25544 51.6317 105.9876 0006941 339.4731 20.5977 15.49181604577830 POISK 1 36086U 09060A 26207.41084145 .00010751 00000+0 20166-3 0 9993 2 36086 51.6317 105.9876 0006941 339.4731 20.5977 15.49181604577507 CSS (TIANHE) 1 48274U 21035A 26205.70067244 .00011455 00000+0 15064-3 0 9995 2 48274 41.4690 94.2105 0001495 308.5106 51.5598 15.58352000299028 ISS (NAUKA) 1 49044U 21066A 26207.41084145 .00010751 00000+0 20166-3 0 9991 2 49044 51.6317 105.9876 0006941 339.4731 20.5977 15.49181604577549 FREGAT DEB 1 49271U 11037PF 26207.38690950 .00016304 00000+0 27018-1 0 9994 2 49271 51.6220 244.0046 0903859 7.9135 353.4953 12.43088243229921 CSS (WENTIAN) 1 53239U 22085A 26205.70067244 .00011455 00000+0 15064-3 0 9998 2 53239 41.4690 94.2105 0001495 308.5106 51.5598 15.58352000288236 CSS (MENGTIAN) 1 54216U 22143A 26205.70067244 .00011455 00000+0 15064-3 0 9999 2 54216 41.4690 94.2105 0001495 308.5106 51.5598 15.58352000298367 HRC MONOBLOCK CAMERA 1 66052U 98067XR 26207.36297647 .00114668 00000+0 59100-3 0 9993 2 66052 51.6199 77.0309 0001084 224.4335 135.6580 15.80303661 44182 SZ-21 MODULE 1 66515U 25246C 26207.00932405 .00054802 00000+0 28795-3 0 9994 2 66515 41.4727 64.9327 0009633 286.2637 73.7148 15.79772814 39874 DUPLEX 1 66906U 98067XS 26206.96588808 .00044798 00000+0 44383-3 0 9991 2 66906 51.6265 93.2374 0002056 357.6302 2.4684 15.65356246 36726 KNACKSAT-2 1 67683U 98067XZ 26206.68153171 .00057388 00000+0 61132-3 0 9994 2 67683 51.6274 100.3605 0007471 1.6961 358.4058 15.63384599 26299 CORAL 1 67684U 98067YA 26206.05328409 .00936467 45171-3 15203-2 0 9997 2 67684 51.6118 89.9766 0006682 256.1646 103.8621 16.02791757 26376 GXIBA-1 1 67685U 98067YB 26207.08226894 .00069170 00000+0 66821-3 0 9996 2 67685 51.6259 97.0216 0007765 358.7916 1.3060 15.65773425 26374 UITMSAT-2 1 67686U 98067YC 26206.41844486 .00104992 00000+0 81916-3 0 9990 2 67686 51.6246 97.8258 0003156 335.9243 24.1607 15.70852635 26305 LEOPARD 1 67687U 98067YD 26207.25384239 .00082314 00000+0 81395-3 0 9993 2 67687 51.6283 96.6921 0004424 332.9613 27.1151 15.65140900 26315 HMU-SAT2 1 67688U 98067YE 26207.09397435 .00090428 00000+0 78190-3 0 9992 2 67688 51.6264 95.6075 0003626 335.1870 24.8952 15.68430547 26312 CREW DRAGON 12 1 67796U 26031A 26207.41084139 .00010793 00000+0 20241-3 0 9995 2 67796 51.6316 105.9874 0006922 339.4590 20.6119 15.49181660577587 PROGRESS-MS 33 1 68319U 26058A 26207.41084145 .00010751 00000+0 20166-3 0 9993 2 68319 51.6317 105.9876 0006941 339.4731 20.5977 15.49181604577668 CYGNUS NG-24 1 68689U 26079A 26207.41084139 .00010793 00000+0 20241-3 0 9999 2 68689 51.6316 105.9874 0006922 339.4590 20.6119 15.49181660577703 PROGRESS-MS 34 1 68837U 26093A 26207.41084139 .00010793 00000+0 20241-3 0 9990 2 68837 51.6316 105.9874 0006922 339.4590 20.6119 15.49181660577742 TIANZHOU-10 1 69049U 26102A 26205.70067244 .00011455 00000+0 15064-3 0 9998 2 69049 41.4690 94.2105 0001495 308.5106 51.5598 15.58352000298716 SHENZHOU-23 (SZ-23) 1 69180U 26113A 26205.70067244 .00011455 00000+0 15064-3 0 9996 2 69180 41.4690 94.2105 0001495 308.5106 51.5598 15.58352000298183